Weather History for Williston, ND

Change the Weather History Date:

Thursday, December 6, 2012

  Actual Average Record
Temperature  
Mean Temperature 26 °F 17 °F  
Max Temperature 34 °F 27 °F 63 °F (1939)
Min Temperature 17 °F 6 °F -30 °F (1972)
Degree Days  
Heating Degree Days 39 48  
Month to date heating degree days 221 284  
Since 1 July heating degree days 2381 2446  
Cooling Degree Days 0 0  
Month to date cooling degree days 0 0  
Year to date cooling degree days 532 456  
Moisture  
Dew Point 23 °F    
Average Humidity 83    
Maximum Humidity 100    
Minimum Humidity 66    
Precipitation  
Precipitation 0.00 in 0.02 in 0.46 in (1916)
Month to date precipitation 0.01 0.12  
Year to date precipitation 12.64 13.87  
Snow  
Snow 0.00 in 0.30 in 5.00 in (1916)
Month to date snowfall 0.0 1.5  
Since 1 July snowfall 16.0 10.4  
Snow Depth 1.00 in    
Sea Level Pressure  
Sea Level Pressure 29.99 in    
Wind  
Wind Speed 7 mph (WNW)    
Max Wind Speed 21 mph    
Max Gust Speed 26 mph    
Visibility 10 miles    
Events      
T = Trace of Precipitation, MM = Missing Value Source: NWS Daily Summary

Daily Weather History Graph

Daily Weather History Graph

Search for Another Location

Airport:

Trip Planner

Search our weather history database for the weather conditions in past years. The results will help you decide how hot, cold, wet, or windy it might be!

Date:

Astronomy

Dec. 06, 2012 Rise Set
Actual Time 8:30 AM CST 5:01 PM CST
Civil Twilight 7:54 AM CST 5:37 PM CST
Nautical Twilight 7:14 AM CST 6:16 PM CST
Astronomical Twilight 6:37 AM CST 6:54 PM CST
Moon 12:17 AM CST (12/6) 12:57 PM CST (12/6)
Length of Visible Light 9h 42m
Length of Day
8h 30m
Waning Gibbous, 49% of the Moon is Illuminated
Dec 6
Waning Gibbous
Dec 13
New
Dec 19
First Quarter
Dec 28
Full
Jan 4
Last Quarter

Hourly Weather History & Observations

Time (CST) Temp. Windchill Dew Point Humidity Pressure Visibility Wind Dir Wind Speed Gust Speed Precip Events Conditions
12:52 AM 34.0 °F 24.6 °F 28.9 °F 82% 29.89 in 10.0 mi West 13.8 mph - N/A   Scattered Clouds
12:57 AM 33.8 °F 24.3 °F 28.4 °F 81% 29.83 in 10.0 mi West 13.8 mph - N/A   Mostly Cloudy
1:52 AM 34.0 °F 26.0 °F 28.9 °F 82% 29.90 in 10.0 mi West 10.4 mph - N/A   Overcast
2:52 AM 33.1 °F 21.9 °F 28.0 °F 82% 29.95 in 10.0 mi NW 18.4 mph 24.2 mph N/A   Overcast
3:13 AM 32.0 °F 20.1 °F 26.6 °F 80% 29.88 in 10.0 mi NW 19.6 mph 26.5 mph N/A   Mostly Cloudy
3:52 AM 30.0 °F 18.3 °F 25.0 °F 82% 29.97 in 10.0 mi WNW 17.3 mph - N/A   Clear
4:08 AM 28.4 °F 15.4 °F 24.8 °F 86% 29.92 in 10.0 mi WNW 19.6 mph 24.2 mph N/A   Mostly Cloudy
4:14 AM 28.4 °F 16.6 °F 24.8 °F 86% 29.92 in 10.0 mi WNW 16.1 mph - N/A   Scattered Clouds
4:52 AM 28.0 °F 19.3 °F 24.1 °F 85% 29.99 in 10.0 mi West 9.2 mph - N/A   Clear
5:52 AM 27.0 °F 15.6 °F 23.0 °F 85% 29.99 in 10.0 mi West 13.8 mph - N/A   Clear
6:52 AM 27.0 °F 15.2 °F 23.0 °F 85% 30.01 in 10.0 mi WNW 15.0 mph 20.7 mph N/A   Partly Cloudy
7:52 AM 26.1 °F 19.4 °F 23.0 °F 88% 30.03 in 10.0 mi WNW 5.8 mph - N/A   Mostly Cloudy
8:11 AM 24.8 °F 19.1 °F 21.2 °F 86% 29.96 in 10.0 mi NW 4.6 mph - N/A   Scattered Clouds
8:17 AM 24.8 °F 17.9 °F 21.2 °F 86% 29.96 in 10.0 mi NW 5.8 mph - N/A   Mostly Cloudy
8:32 AM 24.8 °F 16.9 °F 21.2 °F 86% 29.96 in 10.0 mi WNW 6.9 mph - N/A   Scattered Clouds
8:52 AM 24.1 °F 19.7 °F 21.9 °F 91% 30.04 in 10.0 mi NW 3.5 mph - N/A   Clear
9:52 AM 25.0 °F 19.3 °F 21.9 °F 88% 30.05 in 10.0 mi WSW 4.6 mph - N/A   Clear
10:52 AM 26.1 °F 21.9 °F 23.0 °F 88% 30.06 in 10.0 mi SW 3.5 mph - N/A   Clear
11:52 AM 30.0 °F 23.2 °F 23.0 °F 75% 30.05 in 10.0 mi WSW 6.9 mph - N/A   Clear
12:52 PM 30.9 °F 23.5 °F 23.0 °F 72% 30.03 in 10.0 mi WSW 8.1 mph - N/A   Clear
1:52 PM 32.0 °F 23.0 °F 23.0 °F 69% 30.00 in 10.0 mi WSW 11.5 mph - N/A   Clear
2:52 PM 34.0 °F 26.0 °F 24.1 °F 67% 29.99 in 10.0 mi West 10.4 mph - N/A   Clear
3:52 PM 34.0 °F 28.8 °F 24.1 °F 67% 30.00 in 10.0 mi West 5.8 mph - N/A   Clear
4:52 PM 28.9 °F - 23.0 °F 78% 29.99 in 10.0 mi Calm Calm - N/A   Clear
5:52 PM 27.0 °F - 23.0 °F 85% 29.99 in 10.0 mi Calm Calm - N/A   Clear
6:52 PM 21.0 °F - 19.0 °F 92% 30.00 in 10.0 mi Calm Calm - N/A   Clear
7:52 PM 21.0 °F - 19.0 °F 92% 30.01 in 10.0 mi Calm Calm - N/A   Clear
8:52 PM 19.9 °F - 18.0 °F 92% 30.01 in 10.0 mi Calm Calm - N/A   Partly Cloudy
9:52 PM 19.9 °F 13.4 °F 19.0 °F 96% 30.01 in 10.0 mi NE 4.6 mph - N/A   Clear
10:52 PM 17.1 °F - 16.0 °F 96% 30.03 in 10.0 mi Calm Calm - N/A   Clear
11:52 PM 17.1 °F 7.6 °F 16.0 °F 96% 30.02 in 10.0 mi North 6.9 mph - N/A   Clear